Regional Weather Roundup
Issued by NWS Kansas City/Pleasant Hill, MO

Home | Current Version | Previous Version | Graphics & Text | Print | Product List | Glossary Off
Versions: 1 2 3 4 5 6 7 8 9 10 11 12 13 14 15 16 17 18 19 20 21 22 23 24 25 26 27 28 29 30 31 32 33 34 35 36 37 38 39 40 41 42 43 44 45 46 47 48 49 50

481
ASUS43 KEAX 271310
RWREAX

WEATHER ROUNDUP FOR EASTERN KANSAS AND NORTHWEST MISSOURI
NATIONAL WEATHER SERVICE KANSAS CITY/PLEASANT HILL MO
800 AM CDT THU JUL 27 2017

KSZ040-057-103>105-MOZ028-029-037-043-271400-
...KANSAS CITY METROPOLITAN AREA...

CITY           SKY/WX    TMP DP  RH WIND       PRES   REMARKS
K.C. INTL      DRIZZLE   75  74  96 NE7       29.97S FOG
K.C. DOWNTOWN    N/A     76  74  93 MISG      29.95F
LEES SUMMIT    CLOUDY    74  74 100 NW3       29.97F
OLATHE - IXD   CLOUDY    74  73  97 E6        29.97F FOG
OLATHE - OJC   CLOUDY    73  73 100 CALM      29.97S FOG
LAWRENCE       CLOUDY    76  75  97 N3        29.97R

$$

MOZ001>008-011>017-020>025-030>033-038>040-044>046-053-054-271400-
...NORTHERN AND CENTRAL MISSOURI...

CITY           SKY/WX    TMP DP  RH WIND       PRES   REMARKS
ST. JOSEPH     PTSUNNY   75  73  93 N10       29.99R
MOSBY          CLOUDY    73  73 100 CALM      29.97S
WARRENSBURG    CLOUDY    72  72 100 SW5       29.96R
WHITEMAN AFB   CLOUDY    74  74 100 SW9       29.95R
CLINTON        LGT RAIN  73  73 100 SW10G16   29.97S
SEDALIA        CLOUDY    75  75 100 SW6       29.97R
WARSAW         NOT AVBL
CHILLICOTHE      N/A     76  75  97 N3        29.98R
KIRKSVILLE     CLOUDY    75  73  93 N6        29.98R

$$

MOZ041-047>049-056>058-063>065-088>090-097-271400-
...EASTERN AND SOUTHERN MISSOURI...

CITY           SKY/WX    TMP DP  RH WIND       PRES   REMARKS
ST. LOUIS INTL LGT RAIN  78  74  87 VRB6      29.98R
SPIRIT OF STL  CLOUDY    77  76  96 CALM      29.96R
COLUMBIA       LGT RAIN  74  73  97 CALM      29.97F
JEFFERSON CITY LGT RAIN  75  75 100 CALM      29.97R
ROLLA          LGT RAIN  72  72 100 SW7       30.01S
OSAGE BEACH    RAIN      73  70  90 SW9       29.97F
SPRINGFIELD    RAIN      76  74  93 W6        30.04R FOG
BRANSON        CLOUDY    77  70  78 CALM      30.04R
JOPLIN         LGT RAIN  77  76  96 SW12      29.99F
WEST PLAINS    LGT RAIN  75  72  90 W3        30.04R

$$

IAZ060-094-KSZ022-034>040-054-083-096-NEZ052-066-093-271400-
...KANSAS...SOUTHEAST NEBRASKA AND IOWA...

CITY           SKY/WX    TMP DP  RH WIND       PRES   REMARKS
TOPEKA         CLOUDY    76  76 100 N6        29.97S
MANHATTAN      CLOUDY    75  73  93 NE10      30.00R
EMPORIA        CLOUDY    75  73  93 NE9       29.98R
CHANUTE        CLOUDY    77  74  90 S5        29.96R
WICHITA        PTSUNNY   76  74  93 N8        29.96R
OMAHA          MOSUNNY   69  65  86 N10       30.05S
LINCOLN        SUNNY     71  65  81 N10       30.07R
FALLS CITY     CLOUDY    73  71  93 NE10      30.00R
LAMONI         CLOUDY    72  70  93 N8        30.01R
DES MOINES     MOSUNNY   73  67  81 NE10      30.00R

$$





USA.gov is the U.S. government's official web portal to all federal, state and local government web resources and services.